Weather History for Casper, WY

Change the Weather History Date:

Sunday, February 24, 2013

  Actual Average Record
Temperature  
Mean Temperature 19 °F 29 °F  
Max Temperature 29 °F 41 °F 63 °F (1981)
Min Temperature 9 °F 17 °F -30 °F (2003)
Degree Days  
Heating Degree Days 46 36  
Month to date heating degree days 916 929  
Since 1 July heating degree days 4867 5306  
Cooling Degree Days 0 0  
Month to date cooling degree days 0 0  
Year to date cooling degree days 0 0  
Moisture  
Dew Point 16 °F    
Average Humidity 73    
Maximum Humidity 88    
Minimum Humidity 58    
Precipitation  
Precipitation T in 0.02 in 0.40 in (1956)
Month to date precipitation 0.41 0.48  
Year to date precipitation 0.68 0.99  
Snow  
Snow 0.60 in 0.30 in - ()
Month to date snowfall 7.9 8.4  
Since 1 July snowfall 31.1 48.0  
Snow Depth 2.00 in    
Sea Level Pressure  
Sea Level Pressure 30.04 in    
Wind  
Wind Speed 11 mph (North)    
Max Wind Speed 32 mph    
Max Gust Speed 38 mph    
Visibility 7 miles    
Events Snow    
T = Trace of Precipitation, MM = Missing Value Source: NWS Daily Summary

Daily Weather History Graph

Daily Weather History Graph

Search for Another Location

Airport:

Trip Planner

Search our weather history database for the weather conditions in past years. The results will help you decide how hot, cold, wet, or windy it might be!

Date:

Astronomy

Feb. 24, 2013 Rise Set
Actual Time 6:49 AM MST 5:49 PM MST
Civil Twilight 6:20 AM MST 6:18 PM MST
Nautical Twilight 5:47 AM MST 6:50 PM MST
Astronomical Twilight 5:15 AM MST 7:23 PM MST
Moon 5:03 PM MST (2/24) 5:48 AM MST (2/24)
Length of Visible Light 11h 57m
Length of Day
11h 00m
Waxing Gibbous, 99% of the Moon is Illuminated
Feb 24
Waxing Gibbous
Feb 25
Full
Mar 4
Last Quarter
Mar 11
New
Mar 19
First Quarter

Hourly Weather History & Observations

Time (MST) Temp. Windchill Dew Point Humidity Pressure Visibility Wind Dir Wind Speed Gust Speed Precip Events Conditions
12:00 AM 24.8 °F 8.4 °F 19.4 °F 80% 29.75 in - North 27.6 mph 34.5 mph 0.00 in Snow Light Snow
12:09 AM 24.8 °F 9.0 °F 19.4 °F 80% 29.76 in - North 25.3 mph 34.5 mph 0.00 in Snow Light Snow
12:39 AM 24.8 °F 8.7 °F 19.4 °F 80% 29.77 in - North 26.5 mph 35.7 mph 0.00 in Snow Light Snow
12:53 AM 24.1 °F 6.9 °F 19.9 °F 84% 29.84 in - North 29.9 mph 38.0 mph 0.00 in Snow Light Snow
1:06 AM 24.8 °F 9.0 °F 19.4 °F 80% 29.78 in - North 25.3 mph 34.5 mph 0.00 in Snow Light Snow
1:53 AM 23.0 °F 7.6 °F 19.0 °F 85% 29.86 in - North 21.9 mph 31.1 mph 0.00 in Snow Light Snow
2:53 AM 23.0 °F 8.3 °F 19.0 °F 85% 29.89 in - North 19.6 mph 28.8 mph 0.00 in Snow Light Snow
3:53 AM 23.0 °F - 19.0 °F 85% 29.91 in - North - - 0.00 in Snow Light Snow
4:53 AM 23.0 °F 11.1 °F 17.6 °F 80% 29.88 in 4.0 mi NNE 12.7 mph - N/A   Haze
5:14 AM 21.2 °F 10.1 °F 17.6 °F 86% 29.90 in 3.0 mi NE 10.4 mph - N/A   Overcast
5:53 AM 23.0 °F 15.8 °F 18.0 °F 81% 30.01 in 3.0 mi East 5.8 mph - N/A   Haze
6:53 AM 23.0 °F 13.9 °F 18.0 °F 81% 30.04 in 3.0 mi NNE 8.1 mph - N/A   Haze
7:53 AM 24.1 °F 15.2 °F 19.0 °F 81% 30.07 in 3.0 mi NE 8.1 mph - N/A   Haze
8:53 AM 24.1 °F 16.0 °F 19.0 °F 81% 30.09 in 3.0 mi NE 6.9 mph - 0.00 in Snow Light Snow
9:53 AM 24.1 °F 13.7 °F 19.0 °F 81% 30.14 in 3.0 mi North 10.4 mph - 0.00 in   Haze
10:53 AM 25.0 °F 10.6 °F 19.0 °F 78% 30.14 in 10.0 mi North 20.7 mph 25.3 mph N/A   Overcast
11:53 AM 26.1 °F 13.6 °F 19.9 °F 78% 30.15 in 10.0 mi North 16.1 mph - N/A   Overcast
12:53 PM 26.1 °F 13.1 °F 19.9 °F 78% 30.15 in 10.0 mi NNE 17.3 mph - N/A   Overcast
1:53 PM 26.1 °F 15.6 °F 18.0 °F 71% 30.14 in 10.0 mi NNE 11.5 mph - N/A   Overcast
2:53 PM 27.0 °F 20.5 °F 18.0 °F 69% 30.13 in 10.0 mi NE 5.8 mph - N/A   Overcast
3:53 PM 28.0 °F 20.0 °F 16.0 °F 61% 30.13 in 10.0 mi North 8.1 mph - N/A   Scattered Clouds
4:53 PM 26.1 °F - 16.0 °F 66% 30.15 in 10.0 mi Calm Calm - N/A   Mostly Cloudy
5:53 PM 23.0 °F 15.8 °F 17.6 °F 80% 30.05 in 10.0 mi SSW 5.8 mph - N/A   Overcast
6:53 PM 21.9 °F 11.7 °F 15.1 °F 75% 30.19 in 10.0 mi SW 9.2 mph - N/A   Mostly Cloudy
7:53 PM 19.0 °F 8.2 °F 12.0 °F 74% 30.20 in 10.0 mi WSW 9.2 mph - N/A   Partly Cloudy
8:53 PM 14.0 °F 2.0 °F 8.1 °F 77% 30.22 in - SW 9.2 mph - N/A   Clear
9:53 PM 10.0 °F -1.9 °F 6.1 °F 84% 30.24 in - WSW 8.1 mph - N/A   Clear
10:53 PM 10.9 °F -1.8 °F 6.1 °F 81% 30.22 in - WSW 9.2 mph - N/A   Clear
11:53 PM 9.0 °F -4.2 °F 5.0 °F 84% 30.20 in - WSW 9.2 mph - N/A   Clear